Weather observations for the past three days for
Canandaigua Airport
Imperial (Metric)
Date Time (edt) Wind (mph) Vis. (mi.) Weather Sky Cond. Temperature (ºF) Relative Humidity Wind Chill (°F) Heat Index (°F) Pressure Precipitation (in)
Air Dwpt 6 hour altimeter (in) sea level (mb) 1 hr 3 hr 6 hr
Max. Min.
20 20:55 Calm 10.00 Fair CLR 68 62.6 83% 30.06 0.0
20 20:35 Calm 10.00 Fair CLR 68 57.4 69% 30.06 0.0
20 20:15 Calm 10.00 Fair CLR 72.9 60.8 66% 30.06 0.0
20 19:55 Calm 10.00 Fair CLR 75.4 57.4 80.6 75.4 54% 78 30.05 0.0
20 19:35 NW 3 10.00 Fair CLR 75.4 56.3 52% 78 30.05 0.0
20 19:15 NW 6 10.00 Fair CLR 77.9 56.7 48% 79 30.05 0.0
20 18:55 NW 5 10.00 Fair CLR 77.9 55.6 46% 79 30.05 0.0
20 18:35 W 3 10.00 Fair CLR 77.9 53.8 43% 79 30.05 0.0
20 18:15 NW 5 10.00 Fair CLR 79.2 53.6 41% 79 30.05 0.0
20 17:55 NW 7 10.00 Fair CLR 79.2 55 43% 80 30.05 0.0
20 17:35 W 6 10.00 Fair CLR 80.6 53.6 39% 80 30.06 0.0
20 17:15 W 7 10.00 Fair CLR 80.6 52.7 38% 80 30.07 0.0
20 16:55 NW 6 10.00 Fair CLR 80.6 52 37% 80 30.07 0.0
20 16:35 W 6 10.00 Fair CLR 80.6 52.5 38% 80 30.07 0.0
20 16:15 W 6 10.00 Fair CLR 80.6 52.9 38% 80 30.07 0.0
20 15:55 NW 5 10.00 Fair CLR 80.1 52.9 39% 80 30.07 0.0
20 15:35 W 7 10.00 Fair CLR 79.9 55.8 44% 80 30.08 0.0
20 15:15 W 6 10.00 Partly Cloudy SCT055 79.2 56.5 46% 80 30.08 0.0
20 14:55 NW 9 10.00 Fair CLR 79.2 56.1 45% 80 30.08 0.0
20 14:15 W 6 10.00 Fair CLR 77.9 54 44% 79 30.09 0.0
20 13:55 W 5 10.00 Fair CLR 77.9 53.4 77.9 62.8 43% 79 30.09 0.0
20 13:35 Calm 10.00 Fair CLR 77.9 54.7 45% 79 30.09 0.0
20 13:15 W 5 10.00 Fair CLR 77.9 53.4 43% 79 30.1 0.0
20 12:55 W 3 10.00 Fair CLR 75.4 53.2 46% 78 30.1 0.0
20 12:35 Calm 10.00 Fair CLR 75.4 54.1 48% 78 30.1 0.0
20 12:15 SW 3 10.00 Fair CLR 75.4 57 53% 78 30.11 0.0
20 11:55 N 6 10.00 Fair CLR 75.4 57.2 53% 78 30.11 0.0
20 11:35 NW 5 10.00 Fair CLR 75.4 56.8 53% 78 30.11 0.0
20 11:15 N 5 10.00 Fair CLR 75.4 58.1 55% 78 30.12 0.0
20 10:55 N 6 10.00 Fair CLR 72.9 55.9 55% 30.12 0.0
20 10:35 NW 8 10.00 Fair CLR 72.9 57.9 60% 30.12 0.0
20 10:15 NW 3 10.00 Fair CLR 72.9 58.5 61% 30.12 0.0
20 09:55 NW 5 10.00 Fair CLR 72.9 58.8 62% 30.12 0.0
20 09:35 W 6 10.00 Fair CLR 72.9 59.5 63% 30.12 0.0
20 09:15 W 3 10.00 Fair CLR 69.8 57.4 65% 30.13 0.0
20 08:55 W 3 10.00 Fair CLR 68 56.7 67% 30.13 0.0
20 08:35 W 3 10.00 Fair CLR 68 57.7 70% 30.13 0.0
20 08:15 Calm 10.00 Fair CLR 67.1 59.2 76% 30.13 0.0
20 07:55 Calm 10.00 Fair CLR 62.8 57 62.8 52.7 82% 30.13 0.0
20 07:35 Calm 10.00 Fair CLR 60.3 56.5 87% 30.13 0.0
20 07:15 Calm 10.00 Fair CLR 57.7 54.5 89% 30.13 0.0
20 06:55 Calm 10.00 Fair CLR 55.4 52.2 89% 30.12 0.0
20 06:35 Calm 10.00 Fair CLR 55.4 52.7 91% 30.12 0.0
20 06:15 SW 3 10.00 Fair CLR 55 53.1 93% 30.12 0.0
20 05:55 S 5 10.00 Fair CLR 53.4 52.3 96% 30.12 0.0
20 05:35 Calm 10.00 Fair CLR 52.7 51.8 97% 30.12 0.0
20 05:15 Calm 10.00 Fair CLR 52.7 52.5 99% 30.12 0.0
20 04:55 Calm 10.00 Fair CLR 52.7 52.7 100% 30.11 0.0
20 04:35 Calm 10.00 Fair CLR 53.8 53.8 100% 30.11 0.0
20 04:15 Calm 10.00 Fair CLR 55.4 55.4 100% 30.11 0.0
20 03:55 Calm 10.00 Fair CLR 55.4 55.4 100% 30.11 0.0
20 03:35 Calm 10.00 Fair CLR 55.4 55.4 100% 30.12 0.0
20 03:15 Calm 10.00 Fair CLR 55.4 55.4 100% 30.13 0.0
20 02:55 Calm 10.00 Fair CLR 55.4 55.4 100% 30.13 0.0
20 02:35 Calm 10.00 Fair CLR 55.4 55 99% 30.14 0.0
20 02:15 Calm 10.00 Fair CLR 55.4 55 99% 30.14 0.0
20 01:55 Calm 10.00 Fair CLR 57.7 57.6 72.1 57.6 99% 30.15 0.0
20 01:35 Calm 10.00 Fair CLR 57.7 57.6 99% 30.15 0.0
20 01:15 Calm 10.00 Fair CLR 57.7 57.4 99% 30.15 0.0
20 00:55 SW 3 10.00 Fair CLR 57.7 57.2 98% 30.15 0.0
20 00:35 Calm 10.00 Fair CLR 57.7 57.2 98% 30.15 0.0
20 00:15 SW 3 10.00 Fair CLR 57.7 57.2 98% 30.16 0.0
19 23:55 SW 3 10.00 Fair CLR 57.7 57.2 98% 30.16 0.0
19 23:35 SW 3 10.00 Fair CLR 57.7 57.2 98% 30.16 0.0
19 23:15 Calm 10.00 Fair CLR 58.1 57.2 97% 30.15 0.0
19 22:55 Calm 10.00 Fair CLR 59 57.7 96% 30.15 0.0
19 22:35 SW 3 10.00 Fair CLR 59 57.4 94% 30.15 0.0
19 22:15 Calm 10.00 Fair CLR 60.1 58.1 93% 30.15 0.0
19 21:55 Calm 10.00 Fair CLR 60.6 57.9 91% 30.15 0.0
19 21:35 Calm 10.00 Light Drizzle CLR 61 57.4 88% 30.14 0.0
19 21:15 Calm 10.00 Fair CLR 63 57.2 82% 30.14 0.0
19 20:55 Calm 10.00 Fair CLR 68 60.1 76% 30.14 0.0
19 20:35 N 3 10.00 Fair CLR 68 59 73% 30.14 0.0
19 20:15 N 6 10.00 Fair CLR 68.4 57.9 69% 30.14 0.0
19 19:55 N 6 10.00 Fair CLR 72.9 60.8 77.9 72.9 66% 30.13 0.0
19 19:35 N 7 10.00 Fair CLR 72.9 59.5 63% 30.13 0.0
19 19:15 NW 3 10.00 Fair CLR 75.4 55.6 50% 78 30.13 0.0
19 18:55 NW 5 10.00 Partly Cloudy SCT050 75.4 55 49% 78 30.13 0.0
19 18:35 W 3 10.00 Fair CLR 75.4 53.6 47% 78 30.13 0.0
19 18:15 NW 7 10.00 Fair CLR 77.4 55.2 46% 79 30.13 0.0
19 17:55 NW 7 10.00 Fair CLR 77.9 57.6 50% 79 30.13 0.0
19 17:35 W 5 10.00 Partly Cloudy SCT060 77.9 55.8 47% 79 30.14 0.0
19 17:15 W 3 10.00 Fair CLR 77.9 55.9 47% 79 30.14 0.0
19 16:55 NW 3 10.00 Partly Cloudy SCT050 77.9 55.2 46% 79 30.15 0.0
19 16:35 NW 6 10.00 Partly Cloudy SCT050 75.4 54.5 48% 78 30.15 0.0
19 16:15 W 5 10.00 Partly Cloudy SCT050 75.4 54.3 48% 78 30.15 0.0
19 15:55 W 3 10.00 Fair CLR 76.1 53.8 46% 78 30.15 0.0
19 15:35 W 7 10.00 Partly Cloudy SCT050 76.3 54.7 47% 78 30.16 0.0
19 15:15 W 5 10.00 Partly Cloudy SCT050 75.4 52.9 46% 78 30.16 0.0
19 14:55 W 5 10.00 Partly Cloudy SCT048 SCT050 75.4 53.8 47% 78 30.16 0.0
19 14:35 W 3 10.00 Partly Cloudy SCT047 75.4 55.6 50% 78 30.17 0.0
19 14:15 W 3 10.00 Fair CLR 74.3 54.5 50% 30.17 0.0
19 13:55 Calm 10.00 Fair CLR 72.9 53.8 75.4 61.7 51% 30.17 0.0
19 13:35 Calm 10.00 Partly Cloudy SCT039 75.4 55.9 51% 78 30.17 0.0
19 13:15 W 5 10.00 Fair CLR 74.3 56.1 53% 30.18 0.0
19 12:55 NW 5 10.00 Partly Cloudy SCT045 72.9 55 54% 30.19 0.0
19 12:35 W 7 10.00 Partly Cloudy SCT045 72.9 56.8 57% 30.19 0.0
19 12:15 W 3 10.00 Partly Cloudy SCT045 72.9 57 58% 30.19 0.0
19 11:55 NW 3 10.00 Partly Cloudy SCT035 SCT045 72.9 56.1 56% 30.19 0.0
19 11:15 NW 7 10.00 Partly Cloudy SCT029 SCT043 SCT049 72.9 58.5 61% 30.19 0.0
19 10:55 W 5 10.00 Partly Cloudy SCT029 SCT043 SCT049 68.4 55.4 63% 30.19 0.0
19 10:35 W 6 10.00 Partly Cloudy SCT023 SCT031 SCT042 71.4 58.5 64% 30.19 0.0
19 10:15 W 5 10.00 Mostly Cloudy SCT021 BKN026 BKN031 68 57.6 69% 30.19 0.0
19 09:55 Calm 10.00 Partly Cloudy SCT017 SCT026 68 58.1 71% 30.19 0.0
19 09:35 NW 7 10.00 Fair CLR 68 59 73% 30.19 0.0
19 09:15 W 6 10.00 Fair CLR 68 59.9 75% 30.19 0.0
19 08:55 W 6 10.00 Fair CLR 65.7 58.5 78% 30.19 0.0
19 08:35 W 5 10.00 Fair CLR 65.3 58.5 79% 30.19 0.0
19 08:15 W 6 10.00 Fair CLR 64.2 57.7 80% 30.18 0.0
19 07:55 W 6 10.00 Fair CLR 61.2 55.8 61.2 55.4 83% 30.18 0.0
19 07:35 W 6 10.00 Fair CLR 60.3 55.8 85% 30.17 0.0
19 07:15 W 7 10.00 Fair CLR 59 54.9 86% 30.16 0.0
19 06:55 W 7 10.00 Fair CLR 57.7 54.3 88% 30.16 0.0
19 06:35 W 7 10.00 Fair CLR 57.7 54.9 90% 30.15 0.0
19 06:15 W 6 10.00 Fair CLR 55.4 52.9 91% 30.15 0.0
19 05:55 W 7 10.00 Fair CLR 55.4 52.7 91% 30.14 0.0
19 05:35 W 7 10.00 Partly Cloudy SCT039 55.4 52.9 91% 30.14 0.0
19 05:15 W 6 10.00 Fair CLR 55.4 52.9 91% 30.14 0.0
19 04:55 W 6 10.00 Fair CLR 55.4 52.7 91% 30.13 0.0
19 04:35 W 6 10.00 Partly Cloudy SCT050 57.7 54.7 90% 30.13 0.0
19 04:15 W 6 10.00 Overcast OVC050 57.7 54.1 88% 30.13 0.0
19 03:55 W 7 10.00 Overcast SCT028 SCT040 OVC048 57.7 54 87% 30.13 0.0
19 03:35 W 6 10.00 Mostly Cloudy SCT028 BKN046 57.7 54.1 88% 30.12 0.0
19 03:15 W 8 10.00 Fair CLR 57.7 54 87% 30.13 0.0
19 02:55 W 6 10.00 Partly Cloudy SCT040 57.7 53.8 87% 30.12 0.0
19 02:35 SW 5 10.00 Mostly Cloudy BKN038 57.7 53.6 86% 30.12 0.0
19 02:15 W 5 10.00 Partly Cloudy SCT036 SCT049 57.7 54 87% 30.13 0.0
19 01:55 W 6 10.00 Partly Cloudy SCT036 SCT049 57.7 53.6 68 57.7 86% 30.13 0.0
19 01:35 W 5 10.00 Partly Cloudy SCT034 57.7 53.6 86% 30.13 0.0
19 01:15 W 6 10.00 Fair CLR 57.7 52.9 84% 30.12 0.0
19 00:55 SW 6 10.00 Fair CLR 57.7 52.9 84% 30.12 0.0
19 00:35 SW 6 10.00 Fair CLR 57.7 53.2 85% 30.12 0.0
19 00:15 SW 6 10.00 Fair CLR 57.7 52.7 83% 30.12 0.0
18 23:55 SW 5 10.00 Fair CLR 57.7 53.1 85% 30.11 0.0
18 23:35 SW 5 10.00 Fair CLR 57.7 52.7 83% 30.11 0.0
18 23:15 W 6 10.00 Fair CLR 57.7 52.7 83% 30.11 0.0
18 22:55 W 6 10.00 Fair CLR 57.9 52.7 83% 30.1 0.0
18 22:35 W 3 10.00 Fair CLR 57.7 53.2 85% 30.1 0.0
18 22:15 W 3 10.00 Fair CLR 59 53.2 81% 30.1 0.0
18 21:55 W 5 10.00 Fair CLR 59 52.7 80% 30.1 0.0
18 21:35 W 3 10.00 Fair CLR 60.3 53.2 78% 30.1 0.0
18 21:15 Calm 10.00 Fair CLR 61 51.8 72% 30.09 0.0
18 20:55 W 3 10.00 Fair CLR 62.8 52.3 69% 30.08 0.0
18 20:35 W 6 10.00 Fair CLR 65.8 54.3 67% 30.08 0.0
18 20:15 NW 5 10.00 Fair CLR 68 55.2 64% 30.07 0.0
18 19:55 NW 6 10.00 Fair CLR 68 54 73.9 68 61% 30.06 0.0
18 19:35 NW 9 10.00 Fair CLR 68.9 53.8 59% 30.06 0.0
18 19:15 NW 9 10.00 Fair CLR 70.3 54.1 57% 30.05 0.0
18 18:55 NW 12 10.00 Partly Cloudy SCT045 72.9 55.2 54% 30.05 0.0
18 18:35 NW 8 10.00 Fair CLR 72.9 54.7 53% 30.05 0.0
18 18:15 NW 9 10.00 Partly Cloudy SCT045 72.9 55.4 54% 30.05 0.0
18 17:55 N 13 10.00 Partly Cloudy SCT045 SCT120 72.9 56.1 56% 30.04 0.0
18 17:35 NW 10 G 16 10.00 Partly Cloudy SCT047 SCT120 72.9 55 54% 30.04 0.0
18 17:15 NW 13 G 16 10.00 Partly Cloudy SCT041 SCT048 72.9 54.5 53% 30.04 0.0
18 16:55 N 10 G 17 10.00 Partly Cloudy SCT039 SCT050 72.9 56.3 56% 30.04 0.0
18 16:35 N 10 G 17 10.00 Partly Cloudy SCT039 73.9 56.8 55% 30.04 0.0
18 16:15 N 14 G 18 10.00 Partly Cloudy SCT034 SCT041 SCT060 72.9 56.7 57% 30.04 0.0
18 15:55 N 13 G 16 10.00 Partly Cloudy SCT034 SCT048 SCT065 72.9 58.5 61% 30.04 0.0
18 15:35 N 12 10.00 Mostly Cloudy SCT032 SCT042 BKN065 72.9 59.5 63% 30.04 0.0
18 15:15 N 10 10.00 Overcast SCT034 SCT046 OVC065 72.9 59.4 63% 30.04 0.0
18 14:55 N 9 10.00 Mostly Cloudy SCT037 SCT046 BKN065 72.9 59.5 63% 30.03 0.0
18 14:35 NW 8 10.00 Partly Cloudy SCT065 72.9 58.1 60% 30.03 0.0
18 14:15 N 12 G 18 10.00 Mostly Cloudy SCT040 SCT050 BKN055 72.9 58.3 60% 30.03 0.0
18 13:55 N 10 10.00 Partly Cloudy SCT040 SCT055 73.4 58.3 74.5 65.3 59% 30.03 0.0
18 13:35 NW 12 10.00 Partly Cloudy SCT055 73.4 56.7 56% 30.03 0.0
18 13:15 NW 10 10.00 Partly Cloudy SCT035 SCT043 SCT055 72.9 57.6 59% 30.03 0.0
18 12:55 NW 10 10.00 Mostly Cloudy SCT035 SCT043 BKN055 72.9 58.3 60% 30.03 0.0
18 12:35 NW 9 10.00 Mostly Cloudy SCT035 SCT047 BKN055 71.6 57.7 62% 30.02 0.0
18 12:15 NW 8 10.00 Mostly Cloudy SCT033 SCT043 BKN050 72.9 58.1 60% 30.02 0.0
18 11:55 NW 10 G 17 10.00 Partly Cloudy SCT036 SCT043 SCT050 72.9 57.2 58% 30.02 0.0
18 11:35 NW 7 10.00 Partly Cloudy SCT036 72.9 58.3 60% 30.02 0.0
18 11:15 W 8 10.00 Partly Cloudy SCT033 SCT040 72.5 57.9 60% 30.02 0.0
18 10:55 NW 8 10.00 Partly Cloudy SCT034 SCT044 71.8 56.7 59% 30.02 0.0
18 10:35 NW 8 10.00 Partly Cloudy SCT031 SCT039 SCT045 72.9 58.8 62% 30.01 0.0
18 10:15 NW 9 10.00 Partly Cloudy SCT031 72 57.9 61% 30.01 0.0
18 09:55 NW 7 10.00 Partly Cloudy SCT032 69.6 56.3 63% 30.01 0.0
18 09:35 NW 8 10.00 Fair CLR 68.4 56.3 66% 30.01 0.0
18 09:15 NW 6 10.00 Fair CLR 68 58.5 72% 30 0.0
18 08:55 W 8 10.00 Fair CLR 68 59.7 75% 30 0.0
18 08:35 NW 7 10.00 Fair CLR 68 60.1 76% 30 0.0
18 08:15 W 6 10.00 Fair CLR 66.7 59.7 78% 30 0.0
18 07:55 W 6 10.00 Partly Cloudy SCT020 65.3 59 65.3 59 80% 30 0.0
18 07:35 W 6 10.00 Partly Cloudy SCT020 62.8 56.7 81% 29.99 0.0
18 07:15 W 6 10.00 Partly Cloudy SCT020 61.3 56.7 85% 29.98 0.0
18 06:55 W 6 10.00 Fair CLR 60.6 56.1 85% 29.97 0.0
18 06:35 W 6 10.00 Partly Cloudy SCT048 60.4 55.9 85% 29.96 0.0
18 06:15 W 6 10.00 Partly Cloudy SCT046 60.3 57.2 90% 29.96 0.0
18 05:55 W 5 10.00 Partly Cloudy SCT046 59 56.3 91% 29.96 0.0
18 05:35 W 3 10.00 Partly Cloudy SCT048 SCT070 60.6 56.3 86% 29.95 0.0
18 05:15 W 5 10.00 Mostly Cloudy SCT037 SCT055 BKN070 61.5 56.7 84% 29.95 0.0
18 04:55 W 5 10.00 Mostly Cloudy BKN035 BKN055 BKN070 62.8 58.1 85% 29.94 0.0
18 04:35 W 5 10.00 Mostly Cloudy SCT035 BKN070 BKN090 62.8 58.3 85% 29.93 0.0
18 04:15 W 5 10.00 Overcast OVC035 61.7 58.5 89% 29.92 0.0
18 03:55 W 5 10.00 Mostly Cloudy BKN035 BKN041 60.8 59 94% 29.92 0.0
18 03:35 W 3 10.00 Partly Cloudy SCT038 60.3 58.3 93% 29.92 0.0
18 03:15 W 5 10.00 Fair CLR 60.8 58.5 92% 29.92 0.0
18 02:55 W 3 10.00 Partly Cloudy SCT100 61.5 59 92% 29.91 0.0
18 02:35 W 3 10.00 Partly Cloudy SCT100 61 59 93% 29.91 0.0
18 02:15 W 3 10.00 Fair CLR 61.7 59 91% 29.91 0.0
18 01:55 W 6 10.00 Fair CLR 61.7 59.9 72.9 61 94% 29.91 0.0
18 01:35 W 5 10.00 Fair CLR 61.7 59.9 94% 29.91 0.0
18 01:15 W 6 10.00 Fair CLR 61.5 60.1 95% 29.9 0.0
18 00:55 W 3 10.00 Fair CLR 61.7 59.4 92% 29.9 0.0
18 00:35 W 3 10.00 Fair CLR 62.8 60.1 91% 29.9 0.0
18 00:15 W 6 10.00 Fair CLR 62.8 59.9 90% 29.9 0.0
17 23:55 Calm 10.00 Fair CLR 65.1 61.9 89% 29.89 0.0
17 23:35 SW 3 10.00 Fair CLR 65.3 61.9 89% 29.89 0.0
17 23:15 Calm 10.00 Fair CLR 65.3 62.4 90% 29.89 0.0
17 22:55 Calm 10.00 Fair CLR 66.7 63.1 88% 29.89 0.0
17 22:35 SW 3 10.00 Fair CLR 68 63.9 87% 29.89 0.0
17 22:15 Calm 10.00 Fair CLR 68 63.7 86% 29.89 0.0
17 21:55 Calm 10.00 Fair CLR 68 63.9 87% 29.88 0.0
17 21:35 Calm 10.00 Fair CLR 68 63.3 85% 29.88 0.0
17 21:15 Calm 10.00 Fair CLR 68 62.8 83% 29.87 0.0
Date Time (edt) Wind (mph) Vis. (mi.) Weather Sky Cond. Air Dwpt Max. Min. Relative Humidity Wind Chill (°F) Heat Index (°F) altimeter (in) sea level (mb) 1 hr 3 hr 6 hr
6 hour
Temperature (ºF) Pressure Precipitation (in)